Gustavus, AK

11:41 PM AKDT on September 23, 2017 (GMT -0800)
Gustavus

Weather History for PAGS - February, 2013

Change the Weather History Date:

Monday, February 18, 2013

  Actual Average Record
Temperature  
Mean Temperature 36 °F -  
Max Temperature 39 °F 36 °F 44 °F (1963)
Min Temperature 33 °F 24 °F -1 °F (1952)
Degree Days  
Heating Degree Days 29    
Moisture  
Dew Point 30 °F    
Average Humidity 79    
Maximum Humidity 87    
Minimum Humidity 70    
Precipitation  
Precipitation 0.00 in - - ()
Sea Level Pressure  
Sea Level Pressure 29.72 in    
Wind  
Wind Speed 9 mph (NNW)    
Max Wind Speed 21 mph    
Max Gust Speed 29 mph    
Visibility 10 miles    
Events      
Averages and records for this station are not official NWS values.
T = Trace of Precipitation, MM = Missing Value Source: NWS Daily Summary

Daily Weather History Graph

Daily Weather History Graph

Search for Another Location

Airport or City:

Trip Planner

Search our weather history database for the weather conditions in past years. The results will help you decide how hot, cold, wet, or windy it might be!

Date:

Astronomy

Feb. 18, 2013 Rise Set
Actual Time 7:26 AM AKST 5:07 PM AKST
Civil Twilight 6:45 AM AKST 5:49 PM AKST
Nautical Twilight 5:59 AM AKST 6:35 PM AKST
Astronomical Twilight 5:13 AM AKST 7:21 PM AKST
Moon 10:16 AM AKST (2/18) 2:54 AM AKST (2/18)
Length of Visible Light 11h 03m
Length of Day
9h 41m
First Quarter, 60% of the Moon is Illuminated
Feb 18
First Quarter
Feb 25
Full
Mar 4
Last Quarter
Mar 11
New
Mar 19
First Quarter

Hourly Weather History & Observations

Time (AKST) Temp. Windchill Dew Point Humidity Pressure Visibility Wind Dir Wind Speed Gust Speed Precip Events Conditions
12:16 AM 39.2 °F 30.5 °F 30.2 °F 70% 29.62 in 10.0 mi SE 16.1 mph 25.3 mph N/A   Overcast
12:36 AM 39.2 °F 29.8 °F 30.2 °F 70% 29.62 in 10.0 mi SE 18.4 mph 25.3 mph N/A   Overcast
12:56 AM 39.2 °F 29.3 °F 30.2 °F 70% 29.62 in 10.0 mi SE 20.7 mph 28.8 mph N/A   Overcast
1:16 AM 39.2 °F 30.2 °F 30.2 °F 70% 29.63 in 10.0 mi SE 17.3 mph 25.3 mph N/A   Overcast
1:36 AM 39.2 °F 31.2 °F 30.2 °F 70% 29.63 in 10.0 mi SE 13.8 mph 21.9 mph N/A   Overcast
1:56 AM 39.2 °F 30.8 °F 30.2 °F 70% 29.63 in 10.0 mi SE 15.0 mph 20.7 mph N/A   Overcast
2:16 AM 39.2 °F 30.5 °F 30.2 °F 70% 29.63 in 10.0 mi SE 16.1 mph 20.7 mph N/A   Overcast
2:36 AM 39.2 °F 32.0 °F 30.2 °F 70% 29.63 in 10.0 mi SE 11.5 mph - N/A   Overcast
3:16 AM 39.2 °F 31.2 °F 30.2 °F 70% 29.64 in 10.0 mi SE 13.8 mph - N/A   Overcast
3:36 AM 39.2 °F 31.6 °F 30.2 °F 70% 29.64 in 10.0 mi SE 12.7 mph - N/A   Overcast
3:56 AM 39.2 °F 33.0 °F 30.2 °F 70% 29.64 in 10.0 mi SE 9.2 mph - N/A   Overcast
4:16 AM 39.2 °F 33.6 °F 30.2 °F 70% 29.64 in 10.0 mi SE 8.1 mph - N/A   Overcast
4:36 AM 39.2 °F 33.6 °F 30.2 °F 70% 29.65 in 10.0 mi SE 8.1 mph - N/A   Overcast
4:56 AM 39.2 °F 33.6 °F 30.2 °F 70% 29.65 in 10.0 mi SE 8.1 mph - N/A   Overcast
5:16 AM 39.2 °F 37.0 °F 30.2 °F 70% 29.66 in 10.0 mi NE 3.5 mph - N/A   Overcast
5:36 AM 35.6 °F 31.7 °F 30.2 °F 81% 29.66 in 10.0 mi NNW 4.6 mph - N/A   Overcast
5:56 AM 35.6 °F 31.7 °F 30.2 °F 81% 29.67 in 10.0 mi NNW 4.6 mph - N/A   Overcast
6:16 AM 35.6 °F 29.9 °F 30.2 °F 81% 29.67 in 10.0 mi NNW 6.9 mph - N/A   Overcast
6:36 AM 35.6 °F 29.9 °F 30.2 °F 81% 29.67 in 10.0 mi NNW 6.9 mph - N/A   Overcast
6:56 AM 35.6 °F 31.7 °F 30.2 °F 81% 29.68 in 10.0 mi NNW 4.6 mph - N/A   Overcast
7:16 AM 33.8 °F 28.6 °F 30.2 °F 87% 29.68 in 10.0 mi NNW 5.8 mph - N/A   Overcast
7:36 AM 33.8 °F 27.7 °F 30.2 °F 87% 29.68 in 10.0 mi NNW 6.9 mph - N/A   Overcast
7:56 AM 33.8 °F 27.7 °F 30.2 °F 87% 29.69 in 7.0 mi NW 6.9 mph - N/A   Overcast
8:16 AM 33.8 °F 28.6 °F 28.4 °F 81% 29.69 in 7.0 mi NNW 5.8 mph - N/A   Overcast
8:36 AM 33.8 °F 29.6 °F 28.4 °F 81% 29.69 in 6.0 mi NNW 4.6 mph - N/A   Overcast
8:56 AM 33.8 °F 29.6 °F 28.4 °F 81% 29.70 in 5.0 mi NNW 4.6 mph - N/A   Overcast
9:16 AM 33.8 °F 29.6 °F 30.2 °F 87% 29.70 in 8.0 mi NNW 4.6 mph - N/A   Overcast
9:36 AM 33.8 °F 29.6 °F 30.2 °F 87% 29.70 in 10.0 mi NNW 4.6 mph - N/A   Overcast
9:56 AM 33.8 °F 27.7 °F 30.2 °F 87% 29.71 in 10.0 mi NNW 6.9 mph - N/A   Overcast
10:16 AM 35.6 °F 30.7 °F 30.2 °F 81% 29.71 in 10.0 mi NNW 5.8 mph - N/A   Overcast
10:36 AM 35.6 °F 30.7 °F 30.2 °F 81% 29.72 in 10.0 mi NNW 5.8 mph - N/A   Overcast
10:56 AM 35.6 °F 30.7 °F 30.2 °F 81% 29.73 in 10.0 mi NNW 5.8 mph - N/A   Overcast
11:16 AM 35.6 °F 29.9 °F 30.2 °F 81% 29.73 in 10.0 mi NNW 6.9 mph - N/A   Overcast
11:36 AM 35.6 °F 30.7 °F 30.2 °F 81% 29.73 in 10.0 mi NNW 5.8 mph - N/A   Overcast
11:56 AM 35.6 °F 30.7 °F 32.0 °F 87% 29.74 in 10.0 mi NNW 5.8 mph - N/A   Overcast
12:16 PM 35.6 °F 30.7 °F 32.0 °F 87% 29.74 in 10.0 mi NW 5.8 mph - N/A   Overcast
12:36 PM 37.4 °F 32.8 °F 32.0 °F 81% 29.74 in 10.0 mi NW 5.8 mph - N/A   Overcast
12:56 PM 37.4 °F 33.8 °F 32.0 °F 81% 29.74 in 10.0 mi NNW 4.6 mph - N/A   Overcast
1:16 PM - - - N/A% 29.74 in 10.0 mi NNW 3.5 mph - N/A   Mostly Cloudy
1:36 PM - - - N/A% 29.73 in 10.0 mi NNW 3.5 mph - N/A   Mostly Cloudy
1:56 PM - - - N/A% 29.74 in 10.0 mi Calm Calm - N/A   Mostly Cloudy
2:16 PM - - - N/A% 29.74 in 10.0 mi Calm Calm - N/A   Overcast
2:36 PM - - - N/A% 29.74 in 10.0 mi NNW 4.6 mph - N/A   Overcast
2:56 PM - - - N/A% 29.74 in 10.0 mi NW 3.5 mph - N/A   Overcast
3:16 PM 37.4 °F 34.9 °F 33.8 °F 87% 29.75 in 10.0 mi NW 3.5 mph - N/A   Overcast
3:36 PM 37.4 °F 32.8 °F 33.8 °F 87% 29.75 in 9.0 mi NW 5.8 mph - N/A   Overcast
3:56 PM - - - N/A% 29.74 in 10.0 mi NW 4.6 mph - N/A   Overcast
4:16 PM - - - N/A% 29.75 in 10.0 mi NW 5.8 mph - N/A   Overcast
4:36 PM - - - N/A% 29.75 in 10.0 mi NNW 5.8 mph - N/A   Overcast
4:56 PM - - - N/A% 29.75 in 10.0 mi NNW 4.6 mph - N/A   Overcast
5:16 PM - - - N/A% 29.76 in 10.0 mi NW 4.6 mph - N/A   Overcast
5:36 PM - - - N/A% 29.76 in 10.0 mi Calm Calm - N/A   Overcast
5:56 PM - - - N/A% 29.76 in 10.0 mi Calm Calm - N/A   Overcast
6:16 PM - - - N/A% 29.76 in 10.0 mi NNW 4.6 mph - N/A   Overcast
6:36 PM 35.6 °F 31.7 °F 30.2 °F 81% 29.77 in 10.0 mi North 4.6 mph - N/A   Overcast
6:56 PM 35.6 °F 31.7 °F 30.2 °F 81% 29.77 in 10.0 mi North 4.6 mph - N/A   Overcast
7:16 PM 35.6 °F 31.7 °F 30.2 °F 81% 29.78 in 10.0 mi NW 4.6 mph - N/A   Overcast
7:36 PM - - - N/A% 29.77 in 10.0 mi NNW 3.5 mph - N/A   Overcast
7:56 PM - - - N/A% 29.78 in 10.0 mi NNW 3.5 mph - N/A   Overcast
8:16 PM - - - N/A% 29.78 in 10.0 mi NNW 3.5 mph - N/A   Overcast
8:36 PM - - - N/A% 29.78 in 10.0 mi NNW 3.5 mph - N/A   Overcast
8:56 PM - - - N/A% 29.79 in 10.0 mi Calm Calm - N/A   Overcast
9:16 PM - - - N/A% 29.79 in 10.0 mi NNW 4.6 mph - N/A   Overcast
9:36 PM - - - N/A% 29.79 in 10.0 mi NNW 3.5 mph - N/A   Overcast
9:56 PM - - - N/A% 29.80 in 10.0 mi Calm Calm - N/A   Overcast
10:16 PM - - - N/A% 29.80 in 10.0 mi Calm Calm - N/A   Overcast
10:36 PM - - - N/A% 29.81 in 10.0 mi Calm Calm - N/A   Overcast
10:56 PM - - - N/A% 29.81 in 10.0 mi Calm Calm - N/A   Overcast
11:16 PM - - - N/A% 29.81 in 10.0 mi Calm Calm - N/A   Overcast
11:36 PM - - - N/A% 29.81 in 10.0 mi Calm Calm - N/A   Overcast
11:56 PM - - - N/A% 29.82 in 10.0 mi Calm Calm - N/A   Overcast